Tucson Davis Monthan, AZ

10:54 PM MST on December 09, 2019 (GMT -0700)
Davis-Monthan Air Force Base

Weather History for KDMA - October, 2019

Change the Weather History Date:

Friday, October 4, 2019

  Actual Average Record
Temperature  
Mean Temperature 78 °F -  
Max Temperature 88 °F 87 °F 100 °F (2017)
Min Temperature 68 °F 61 °F 47 °F (1959)
Cooling Degree Days 13    
Growing Degree Days 28 (Base 50)    
Moisture  
Dew Point 55 °F    
Average Humidity 47    
Maximum Humidity 70    
Minimum Humidity 27    
Precipitation  
Precipitation 0.00 in - - ()
Sea Level Pressure  
Sea Level Pressure 29.88 in    
Wind  
Wind Speed 3 mph (SW)    
Max Wind Speed 8 mph    
Max Gust Speed -    
Visibility 10 miles    
Events Rain    
Averages and records for this station are not official NWS values.
T = Trace of Precipitation, MM = Missing Value Source: NWS Daily Summary

Daily Weather History Graph

Daily Weather History Graph

Search for Another Location

Airport or City:

Astronomy

Oct. 04, 2019 Rise Set
Actual Time 6:19 AM MST 6:04 PM MST
Civil Twilight 5:54 AM MST 6:29 PM MST
Nautical Twilight 5:26 AM MST 6:57 PM MST
Astronomical Twilight 4:58 AM MST 7:25 PM MST
Moon 12:35 PM MST (10/4) 10:55 PM MST (10/4)
Length of Visible Light 12h 34m
Length of Day
11h 45m
Waxing Crescent, 41% of the Moon is Illuminated
Oct 4
Waxing Crescent
Oct 5
First Quarter
Oct 13
Full
Oct 21
Last Quarter
Oct 27
New

Hourly Weather History & Observations

Time (MST) Temp. Heat Index Dew Point Humidity Pressure Visibility Wind Dir Wind Speed Gust Speed Precip Events Conditions
12:58 AM 74.5 °F - 57.7 °F 56% 29.85 in 10.0 mi South 3.5 mph - N/A   Mostly Cloudy
1:58 AM 74.7 °F - 55.8 °F 52% 29.85 in 10.0 mi SSW 3.5 mph - N/A   Overcast
2:58 AM 74.1 °F - 58.8 °F 59% 29.85 in 10.0 mi Calm Calm - N/A   Mostly Cloudy
3:35 AM 73.4 °F - 59.0 °F 61% 29.86 in 10.0 mi South 3.5 mph - N/A   Light Drizzle
3:45 AM 73.4 °F - 59.0 °F 61% 29.85 in 10.0 mi Calm Calm - N/A   Mostly Cloudy
3:58 AM 73.8 °F - 59.4 °F 61% 29.85 in 10.0 mi SSW 5.8 mph - 0.00 in   Scattered Clouds
4:00 AM 73.4 °F - 59.0 °F 61% 29.85 in 10.0 mi SSW 5.8 mph - N/A Rain Light Rain
4:12 AM 73.4 °F - 60.8 °F 65% 29.86 in 10.0 mi SW 4.6 mph - N/A   Mostly Cloudy
4:58 AM 73.0 °F - 60.1 °F 64% 29.87 in 10.0 mi Calm Calm - 0.00 in   Overcast
5:58 AM 72.3 °F - 61.2 °F 68% 29.89 in 10.0 mi Calm Calm - N/A   Mostly Cloudy
6:58 AM 71.6 °F - 61.3 °F 70% 29.91 in 10.0 mi Calm Calm - N/A   Mostly Cloudy
7:58 AM 72.5 °F - 60.4 °F 66% 29.93 in 10.0 mi Calm Calm - N/A   Scattered Clouds
8:58 AM 76.8 °F - 57.2 °F 51% 29.95 in 10.0 mi Calm Calm - N/A   Partly Cloudy
9:58 AM 79.9 °F - 54.0 °F 41% 29.95 in 10.0 mi Calm Calm - N/A   Clear
10:58 AM 82.2 °F 81.3 °F 53.2 °F 37% 29.93 in 10.0 mi Calm Calm - N/A   Clear
11:58 AM 84.6 °F 83.1 °F 53.8 °F 35% 29.90 in 10.0 mi ESE 3.5 mph - N/A   Clear
12:58 PM 86.7 °F - 52.3 °F 31% 29.88 in 10.0 mi West 3.5 mph - N/A   Clear
1:58 PM 87.8 °F - 51.6 °F 29% 29.86 in 10.0 mi NW 4.6 mph - N/A   Clear
2:58 PM 88.3 °F - 52.0 °F 29% 29.85 in 10.0 mi Calm Calm - N/A   Clear
3:58 PM 88.3 °F - 50.0 °F 27% 29.83 in 10.0 mi North 8.1 mph - N/A   Partly Cloudy
4:58 PM 88.0 °F - 49.8 °F 27% 29.83 in 10.0 mi WNW 4.6 mph - N/A   Partly Cloudy
5:58 PM 85.8 °F - 48.0 °F 27% 29.85 in 10.0 mi NW 5.8 mph - N/A   Clear
6:58 PM 81.9 °F - 46.4 °F 29% 29.86 in 10.0 mi NW 5.8 mph - N/A   Clear
7:58 PM 79.2 °F - 48.4 °F 34% 29.89 in 10.0 mi WNW 3.5 mph - N/A   Clear
8:58 PM 77.2 °F - 50.4 °F 39% 29.91 in 10.0 mi Calm Calm - N/A   Clear
9:58 PM 71.8 °F - 51.1 °F 48% 29.93 in 10.0 mi SE 3.5 mph - N/A   Clear
10:58 PM 68.7 °F - 50.9 °F 53% 29.94 in 10.0 mi ESE 3.5 mph - N/A   Clear
11:58 PM 70.3 °F - 49.6 °F 48% 29.94 in 10.0 mi SSE 6.9 mph - N/A   Clear